Preview of NWS' New Version of Forecast
This preview is not operational and should not be used for support decisions.

Regional Weather Roundup (RWR)

Issued by National Weather Service (NWS)

                            
000
ASUS43 KMKX 220211
RWRWI 

WISCONSIN REGIONAL WEATHER ROUNDUP
NATIONAL WEATHER SERVICE MILWAUKEE/SULLIVAN WI
900 PM CDT SAT SEP 21 2019

NOTE: "FAIR" INDICATES FEW OR NO CLOUDS BELOW 12,000 FEET WITH NO
SIGNIFICANT WEATHER AND/OR OBSTRUCTIONS TO VISIBILITY.

WIZ001-002-006>008-014>016-023>028-220300-
NORTHWEST WISCONSIN
  
CITY           SKY/WX    TMP DP  RH WIND       PRES   REMARKS
SUPERIOR ARPT  FAIR      62  62  99 CALM      29.71R                  
ASHLAND        FAIR      68  64  87 SW17G26   29.74R                  
HAYWARD        TSTM      67  64  90 S13G21    29.78  FOG              
SIREN          CLOUDY    65  64  96 SW9       29.77R                  
CUMBERLAND     CLOUDY    72  66  83 S10       29.78R                  
RICE LAKE      FAIR      74  58  57 S8        29.79R                  
CHETEK         CLOUDY    73  70  89 SW5       29.79R                  
LADYSMITH      CLOUDY    74  71  92 S10       29.81S                  
EAU CLAIRE     FAIR      75  68  78 S8        29.79R                  
MENOMONIE      FAIR      71  67  87 S10       29.79R                  
NEW RICHMOND   FAIR      73  68  83 SW9G16    29.77R                  
OSCEOLA        MOCLDY    75  70  86 S9        29.78R                  
$$
 
WIZ003>005-009-010-017-018-220300-
NORTH CENTRAL WISCONSIN
  
CITY           SKY/WX    TMP DP  RH WIND       PRES   REMARKS
MANITOWISH WTR CLOUDY    70  70 100 S8        29.81F                  
ARBOR VITAE    LGT RAIN  72  69  89 S10       29.83S                  
WOODRUFF       LGT RAIN  72  69  89 S10       29.83S                  
RHINELANDER    LGT RAIN  70  67  90 SW8       29.85S                  
EAGLE RIVER    CLOUDY    69  69  99 S3        29.84S                  
LAND O LAKES   NOT AVBL                                               
PHILLIPS       LGT RAIN  70  70 100 S8        29.81S                  
TOMAHAWK       RAIN      69  67  94 CALM      29.84S                  
MEDFORD        DRIZZLE   69  68  97 S12G20    29.84R                  
MERRILL        DRIZZLE   71  71 100 SW13      29.85S                  
$$
 
WIZ029-030-035-036-043>047-220300-
CENTRAL WISCONSIN
  
CITY           SKY/WX    TMP DP  RH WIND       PRES   REMARKS
WAUSAU         CLOUDY    71  69  93 S9G22     29.84S                  
MOSINEE        DRIZZLE   72  66  83 S12       29.87S                  
MARSHFIELD     LGT RAIN  71  69  93 S12G20    29.85R                  
STEVENS POINT  LGT RAIN  70  70  99 S10G17    29.87S                  
WAUPACA        CLOUDY    75  71  88 S9        29.88F                  
WAUTOMA        CLOUDY    73  70  90 S9        29.90R                  
WISC RAPIDS    CLOUDY    73  69  87 S10G20    29.86F                  
CAMP DOUGLAS   FAIR      74  72  93 S8G18     29.87S                  
$$
 
WIZ011>013-019>022-031-037>040-048>050-220300-
NORTHEAST WISCONSIN
  
CITY           SKY/WX    TMP DP  RH WIND       PRES   REMARKS
ANTIGO         CLOUDY    69  69 100 S10       29.88S FOG              
SHAWANO        CLOUDY    74  70  88 S5        29.87S                  
OCONTO         MOCLDY    72  69  91 S5        29.88S                  
STURGEON BAY   MOCLDY    68  66  93 S9        29.91F                  
GREEN BAY      MOCLDY    74  69  85 S12G20    29.89F                  
MANITOWOC      CLOUDY    67  65  93 S7        29.93F                  
APPLETON       MOCLDY    72  70  94 S13       29.89F                  
CLINTONVILLE   CLOUDY    73  67  83 S12       29.87F                  
OSHKOSH        MOCLDY    73  69  87 S13G23    29.90S                  
$$
 
WIZ032>034-041-042-053>061-220300-
SOUTHWEST WISCONSIN
  
CITY           SKY/WX    TMP DP  RH WIND       PRES   REMARKS
LA CROSSE      CLOUDY    75  70  83 S14       29.83S                  
SPARTA         CLOUDY    69  67  93 S7G20     29.86R                  
VIROQUA        CLOUDY    72  72 100 S12G21    29.90R                  
BOSCOBEL       CLOUDY    76  70  82 S9G21     29.89F                  
PRAIRIE DU CHI CLOUDY    75  69  81 S8        29.88F                  
PLATTEVILLE    CLOUDY    73  73 100 S9        29.95S                  
$$

WIZ056-057-062-063-064-067-068-220300-
SOUTH CENTRAL WISCONSIN
  
CITY           SKY/WX    TMP DP  RH WIND       PRES   REMARKS
REEDSBURG      CLOUDY    73  72  98 S14       29.91R                  
BARABOO/DELLS  MOCLDY    71  68  90 SW13G18   29.91F                  
LONE ROCK      MOCLDY    74  70  87 S10       29.91S                  
MINERAL POINT  CLOUDY    73  73 100 S12       29.95S                  
MADISON        CLOUDY    74  70  87 S12       29.93S                  
MIDDLETON      CLOUDY    74  69  85 S10       29.94S                  
WATERTOWN      CLOUDY    72  72 100 SW10      29.96R                  
MONROE         MOCLDY    72  70  95 S16       29.97S                  
JANESVILLE     CLOUDY    72  72 100 SW10      29.98R                  
$$
 
WIZ051-052-058>065-066-070>072-220300-
SOUTHEAST WISCONSIN
  
CITY           SKY/WX    TMP DP  RH WIND       PRES   REMARKS
MILWAUKEE      CLOUDY    74  69  85 SW13      29.96S                  
WAUKESHA       CLOUDY    72  68  88 SW8G20    29.98S                  
MILWAUKEE/TIMM CLOUDY    72  64  78 SW14G20   29.97R                  
RACINE         MOCLDY    74  69  85 SW14G23   29.99F                  
KENOSHA        CLOUDY    74  72  93 SW12G25   29.99S                  
FOND DU LAC    CLOUDY    74  70  87 S12       29.92F                  
SHEBOYGAN      CLOUDY    73  69  87 S15       29.93F                  
WEST BEND      CLOUDY    72  70  94 S8        29.95F                  
JUNEAU         CLOUDY    72  71  96 S12G17    29.95F                  
$$

LSZ147-162-220300-
LAKE SUPERIOR
  
STATION/POSITION TIME  TEMP    WIND        PRES    WAVE
                       AIR SEA DIR/SP/G            HT/PER
                 (UTC) (F)     (DEG/KT/KT) (MB)    (FT/S)
W MID LAKE BUOY  0150   63 55  190/ 19/ 21 1003.9F   2/ 4
DEVILS ISLAND    0100   71     170/ 17/ 24 1003.4F
SAXON HARBOR     0140   72      CALM  /  7 1006.1F
$$
 
LMZ867-665-643>646-220300-
LAKE MICHIGAN
  
STATION/POSITION TIME  TEMP    WIND        PRES    WAVE
                       AIR SEA DIR/SP/G            HT/PER
                 (UTC) (F)     (DEG/KT/KT) (MB)    (FT/S)
CHAMBERS ISLAND  0140   71     130/  7/ 13   N/A
N MID LAKE BUOY  0150   66 63  190/ 21/ 25 1012.8R   6/ 7
NORTHPORT PIER   0040   67     130/  7/ 14 1012.2R
KEWAUNEE LAKESHO 0130   62     170/ 10/ 12 1012.9S
SHEBOYGAN LAKESH 0200   65     190/ 19/ 19 1013.5F
PORT WASHINGTON  0140   74     230/  4/  9 1015.2S
S MID LAKE BUOY  0150   71 69  190/ 16/ 19 1015.8F   3/ 5
KENOSHA   LAKESH 0200   73     210/ 10/ 17 1015.2
$$

TC  - TEMPERATURE IN CELSIUS
VSB - VISIBILITY IN STATUTE MILES
WCI - WIND CHILL INDEX
HX  - HEAT INDEX